SCP
0 0 0 0 0 0 0 0 0 0 0 0 0 0 0 0 0 0 0 0 0 0 0 0 0 0 0 0 0 0 0 0 0 0 0 0 0 0
0 0 0 0 0 0 0 0 0 0 0 0 0 0 0 0 0 0 0 0 0 0 0 0 0 0 0 0 0 0 0 0 0 0 0 0 0 0
0 0 0 0 0 0 0 0 0 0 0 0 0 0 0 0 0 0 0 0 0 0 0 0 0 0 0 0 0 0 0 0 0 0 0 0 0 0
0 0 0 0 0 0 0 0 0 0 0 0 0 0 0 0 0 0 0 0 0 0 0 0 0 0 0 0 0 0 0 0 0 0 0 0 0 0
0 0 0 0 0 0 0 0 0 0 0 0 0 0 0 0 0 0 0 0 0 0 0 0 0 0 0 0 0 0 0 0 0 0 0 0 0 0
0 0 0 0 0 0 0 0 0 0 0 0 0 0 0 0 0 0 0 0 0 0 0 0 0 0 0 0 0 0 0 0 0 0 0 0 0 0
0 0 0 0 0 0 0 0 0 0 0 0 0 0 0 0 0 0 0 0 0 0 0 0 0 0 0 0 0 0 0 0 0 0 0 0 0 0
0 0 0 0 0 0 0 0 0 0 0 0 0 0 0 0 0 0 0 0 0 0 0 0 0 0 0 0 0 0 0 0 0 0 0 0 0 0
0 0 0 0 0 0 0 0 0 0 0 0 0 0 0 0 0 0 0 0 0 0 0 0 0 0 0 0 0 0 0 0 0 0 0 0 0 0
0 0 0 0 0 0 0 0 0 0 0 0 0 0 0 0 0 0 0 0 0 0 0 0 0 0 0 0 0 0 0 0 0 0 0 0 0 0
0 0 0 0 0 0 0 0 0 0 0 0 0 0 0 0 0 0 0 0 0 0 0 0 0 0 0 0 0 0 0 0 0 0 0 0 0 0
0 0 0 0 0 0 0 0 0 0 0 0 0 0 0 0 0 0 0 0 0 0 0 0 0 0 0 0 0 0 0 0 0 0 0 0 0 0
0 0 0 0 0 0 0 0 0 0 0 0 0 0 0 0 0 0 0 0 0 0 0 0 0 0 0 0 0 0 0 0 0 0 0 0 0 0
0 0 0 0 0 0 0 0 0 0 0 0 0 0 0 0 0 0 0 0 0 0 0 0 0 0 0 0 0 0 0 0 0 0 0 0 0 0
0 0 0 0 0 0 0 0 0 0 0 0 0 0 0 0 0 0 0 0 0 0 0 0 0 0 0 0 0 0 0 0 0 0 0 0 0 0
0 0 0 0 0 0 0 0 0 0 0 0 0 0 0 0 0 0 0 0 0 0 0 0 0 0 0 0 0 0 0 0 0 0 0 0 0 0
0 0 0 0 0 0 0 0 0 0 0 0 0 0 0 0 0 0 0 0 0 0 0 0 0 0 0 0 0 0 0 0 0 0 0 0 0 0
0 0 0 0 0 0 0 0 0 0 0 0 0 0 0 0 0 0 0 0 0 0 0 0 0 0 0 0 0 0 0 0 0 0 0 0 0 0
0 0 0 0 0 0 0 0 0 0 0 0 0 0 0 0 0 0 0 0 0 0 0 0 0 0 0 0 0 0 0 0 0 0 0 0 0 0
0 0 0 0 0 0 0 0 0 0 0 0 0 0 0 0 0 0 0 0 0 0 0 0 0 0 0 0 0 0 0 0 0 0 0 0 0 0
0 0 0 0 0 0 0 0 0 0 0 0 0 0 0 0 0 0 0 0 0 0 0 0 0 0 0 0 0 0 0 0 0 0 0 0 0 0
0 0 0 0 0 0 0 0 0 0 0 0 0 0 0 0 0 0 0 0 0 0 0 0 0 0 0 0 0 0 0 0 0 0 0 0 0 0
0 0 0 0 0 0 0 0 0 0 0 0 0 0 0 0 0 0 0 0 0 0 0 0 0 -0 0 0 0 0 0 0 0 0 0 0 0 0
Wind_Speed
6 6 6 5 5 6 5 5 4 4 4 3 2 1 1 1 2 2 3 4 4 4 5 7 8 9 10 10 11 12 12 13 13 14 15 17 18 19
5 6 6 5 5 6 6 6 6 5 5 3 3 2 2 2 2 2 2 3 3 3 3 4 6 7 9 9 10 10 11 11 11 12 13 14 15 15
5 6 7 6 6 6 6 6 6 6 7 4 3 2 3 3 2 1 2 2 2 2 2 2 2 4 5 6 8 9 9 9 9 10 10 10 11 11
7 6 7 6 7 6 6 7 7 7 7 7 4 3 3 3 2 1 1 1 1 2 2 1 1 3 4 5 6 7 8 8 8 8 8 8 8 9
7 7 7 7 8 6 7 7 6 7 6 5 5 3 2 2 1 1 0 0 1 2 4 4 4 5 6 7 8 8 8 8 8 8 8 8 8 8
7 7 8 8 9 8 7 8 7 7 6 5 5 3 3 2 2 2 1 1 1 2 4 5 7 8 8 9 10 10 10 10 10 10 10 10 10 10
7 7 8 10 11 9 7 7 7 7 6 6 5 4 4 3 4 3 2 2 2 1 3 3 4 5 6 8 10 11 11 11 11 12 12 12 12 12
8 8 8 10 12 13 13 12 11 10 9 7 6 7 6 5 4 4 4 3 2 1 3 4 4 5 5 5 8 11 12 12 12 13 13 13 13 13
8 8 7 7 9 8 10 12 12 14 13 9 9 9 8 8 7 6 5 3 3 4 4 4 4 5 5 6 11 12 12 13 13 13 14 13 13 13
9 9 8 8 7 7 7 7 8 9 11 10 9 9 7 7 8 7 6 5 5 3 2 4 3 4 5 6 10 12 12 13 14 14 14 14 14 13
8 8 8 8 9 9 8 8 7 6 7 9 9 8 9 10 9 7 7 7 5 3 1 4 4 5 5 5 7 11 12 12 13 14 14 14 13 12
6 6 9 9 9 9 8 8 9 7 6 6 6 7 8 10 12 10 9 8 7 4 3 4 6 5 5 3 4 5 7 10 11 12 12 12 11 8
5 5 5 8 9 9 9 8 9 6 6 6 5 5 6 6 7 7 7 8 8 5 7 6 5 4 5 5 3 3 4 5 6 7 8 9 8 7
6 5 5 7 8 9 8 8 9 7 5 6 5 5 6 5 5 6 6 4 3 6 9 7 6 5 7 7 5 4 4 4 4 5 5 7 8 8
5 6 6 7 7 6 7 9 9 6 6 6 6 5 4 5 6 6 7 8 8 7 6 6 7 7 6 7 7 6 4 3 4 5 5 5 5 5
3 4 5 5 4 4 4 5 5 5 6 6 6 5 5 6 6 7 7 8 8 6 6 6 7 9 7 7 8 7 5 5 5 5 5 5 4 4
2 1 2 2 3 3 3 3 4 5 5 5 6 6 6 6 6 6 7 7 7 7 6 5 6 7 7 7 8 7 6 5 5 5 5 5 4 3
2 2 2 2 3 3 3 4 4 5 6 6 7 7 7 7 7 6 7 8 9 8 8 7 8 8 6 6 4 7 6 5 5 5 5 5 4 3
2 2 2 2 2 2 3 3 4 4 5 6 7 7 7 8 8 8 8 8 8 8 7 7 8 8 9 7 3 2 5 6 6 4 3 3 4 4
1 1 1 2 2 3 3 4 4 4 5 6 7 7 7 8 9 9 8 10 9 8 7 6 6 7 8 7 6 3 3 6 6 5 4 3 3 3
1 1 1 2 2 3 4 4 5 5 5 6 6 7 7 8 8 8 8 11 9 8 8 6 4 6 6 6 6 4 3 2 4 5 6 4 4 4
1 1 2 2 2 3 4 5 5 5 6 6 6 7 7 8 9 10 9 9 8 8 7 6 6 5 4 6 7 6 5 4 3 4 3 3 4 5
1 1 1 2 3 3 4 6 6 5 5 6 7 7 7 7 7 7 8 8 8 9 8 7 5 4 4 5 6 5 6 5 4 4 3 2 3 2
Wind_Direction
226 222 222 219 212 214 209 201 202 237 256 241 237 236 246 303 317 317 309 304 289 272 258 247 239 232 226 222 217 215 215 214 213 212 211 213 214 216
228 225 227 222 217 213 212 212 212 219 240 231 229 237 262 285 314 314 313 322 319 295 275 254 239 230 223 219 214 211 207 205 207 206 205 207 207 208
235 231 233 224 219 216 212 211 213 213 236 243 229 233 240 251 287 303 309 321 331 334 305 259 230 217 209 203 200 198 195 194 194 194 191 190 190 193
240 236 240 232 225 220 215 216 215 211 220 238 234 223 227 231 237 258 302 343 3 23 38 70 143 165 170 170 170 169 167 166 167 167 168 169 172 175
243 239 242 235 232 225 220 219 218 215 213 224 232 218 221 206 192 198 125 68 57 66 71 80 95 110 119 124 127 126 126 128 133 138 139 141 141 143
247 244 244 237 234 230 226 222 216 214 212 217 222 216 213 195 180 180 162 107 73 66 72 77 84 88 95 106 111 113 113 114 114 114 115 116 116 116
253 250 247 244 239 232 227 218 210 212 210 211 215 211 205 190 190 175 166 134 72 83 95 77 81 81 79 89 99 105 108 110 110 109 108 108 107 106
253 256 255 254 249 238 232 222 211 209 209 208 212 211 209 198 181 171 162 160 146 134 103 76 69 78 70 77 94 101 105 106 107 108 107 107 106 105
246 252 257 251 242 240 234 228 222 218 212 209 213 213 203 193 178 176 175 168 151 152 121 90 74 76 69 78 91 98 102 105 106 107 107 106 105 104
245 244 247 252 242 231 227 225 224 220 216 215 218 213 204 189 183 174 157 129 107 108 107 106 93 81 75 74 83 94 98 102 105 106 107 106 105 103
246 243 241 247 240 224 221 223 224 225 219 216 210 202 189 181 170 155 153 150 140 129 98 112 118 97 77 71 77 88 94 98 103 108 110 109 109 106
244 240 238 241 235 218 217 217 218 218 198 191 193 189 188 183 178 176 169 162 146 142 155 126 138 129 104 74 79 92 95 95 100 106 112 114 116 111
237 240 237 232 229 221 216 220 215 198 189 185 181 179 178 179 179 177 176 170 159 148 158 140 142 133 123 125 101 89 102 111 110 105 105 110 115 117
234 239 239 234 232 223 218 214 201 188 184 178 175 176 172 169 164 159 152 139 122 139 152 144 137 145 133 130 128 121 106 109 116 115 114 108 99 93
234 236 237 236 231 224 216 203 191 188 183 177 173 169 160 151 140 131 123 114 101 104 125 132 132 135 133 133 135 137 129 118 123 124 123 124 125 124
233 239 233 226 215 200 188 194 195 182 176 169 157 146 138 139 141 139 135 130 118 103 84 104 130 132 125 125 133 137 136 137 139 129 121 113 111 118
191 216 213 199 191 183 182 184 173 163 160 152 147 143 141 137 137 137 134 131 128 131 120 98 88 89 99 127 135 138 133 128 137 136 130 120 114 124
184 206 201 202 193 176 165 159 157 156 151 145 143 142 143 140 136 133 135 136 134 134 131 130 127 116 99 62 75 137 132 131 136 138 136 134 137 145
190 204 193 192 183 160 151 144 138 139 139 138 138 140 140 138 136 136 134 132 131 131 132 140 144 141 140 133 93 88 142 140 141 140 141 141 152 159
205 206 189 175 168 156 147 139 133 132 133 133 133 135 138 138 137 137 138 138 136 132 132 138 150 152 150 144 137 126 142 148 150 149 141 120 106 104
204 202 175 159 153 140 133 128 128 131 132 130 131 133 135 134 133 134 134 135 136 140 145 143 125 116 107 112 119 124 128 129 151 151 150 148 152 169
162 154 143 134 134 131 129 127 125 126 130 131 133 132 131 132 134 136 139 143 143 140 131 122 130 133 136 147 148 143 139 131 114 126 154 166 172 187
104 121 121 119 123 128 130 131 132 132 133 133 132 133 134 133 135 137 139 139 136 135 131 133 138 136 133 142 145 145 150 153 157 164 180 224 233 224